Lid_Strength_Index
1 3 3 6 10 11 15 13 11 12 12 11 11 12 13 12 14 15 10 9 8 8 7 7 3 3 3 2 2 2 2 0 -0 -1 -1 -1 -2 -1 -2 -2 -2 -1 -1 -1 -1 -1 -1 -1 -1
2 3 5 7 12 16 15 11 11 10 9 10 10 10 12 14 10 10 11 9 8 8 7 7 3 3 4 3 3 3 2 2 1 0 -0 -1 -1 -2 -1 -2 -2 -2 -1 -1 -1 -1 -1 -1 -1
4 4 8 11 14 15 14 10 10 8 7 8 10 9 10 11 9 9 9 8 8 8 8 7 3 3 3 3 3 2 3 3 2 1 0 0 -0 -1 -1 -1 -2 -1 -1 -1 -1 -1 -1 -1 -1
5 7 10 12 14 13 11 10 8 7 6 7 10 11 9 7 8 8 7 6 7 8 8 5 3 3 3 3 3 3 3 3 3 3 1 1 0 0 -0 -1 -1 -1 -1 -1 -1 -1 -1 -1 -1
6 9 13 15 15 13 10 8 8 8 8 8 9 11 10 7 6 6 7 6 6 6 6 6 2 3 3 2 3 3 3 4 4 3 3 2 1 1 1 0 -0 -1 -1 -1 -1 -1 -1 -1 -1
9 10 14 15 14 13 12 10 9 9 9 9 10 10 10 6 6 6 6 6 6 6 6 6 2 2 2 2 3 3 3 4 4 4 4 3 3 2 2 1 0 -0 -1 -1 -1 -1 -1 -1 -1
9 13 16 15 14 13 12 10 11 11 11 11 8 11 10 9 6 6 6 7 6 6 7 7 7 4 2 3 2 3 3 4 4 4 4 4 4 4 3 3 2 1 1 -1 -1 -1 -1 -1 -1
10 12 15 16 15 15 11 10 10 11 12 8 8 11 13 9 7 7 7 8 8 7 7 7 7 8 8 8 3 3 3 3 4 5 4 5 5 5 4 3 3 2 2 1 -1 -1 -1 -1 -1
9 14 16 15 14 13 11 12 10 9 10 10 9 9 8 7 8 8 9 10 10 8 8 8 7 7 7 7 5 5 4 3 3 4 4 6 7 7 6 5 4 3 3 2 1 -1 -1 -1 -1
12 15 14 12 12 12 11 12 10 10 11 11 11 9 8 8 10 10 11 11 11 10 9 8 8 8 7 5 8 8 7 7 7 4 5 6 7 7 7 6 5 4 4 4 3 1 -1 -1 -0
13 14 13 12 11 11 12 12 10 11 13 11 11 11 10 10 11 11 11 11 10 10 9 8 8 8 8 7 8 8 8 8 7 7 5 6 7 7 8 8 8 7 5 5 5 3 -1 -0 -0
13 13 12 13 12 12 13 13 12 12 12 10 10 10 11 10 11 11 11 11 11 10 10 8 8 9 8 8 8 8 8 8 8 8 5 7 7 8 8 8 8 7 7 7 6 5 2 -0 -0
13 13 12 12 12 12 11 13 12 12 11 10 10 9 10 10 11 11 10 11 11 10 10 9 8 9 8 8 9 8 8 8 8 9 6 6 7 9 8 8 8 7 7 8 7 6 4 2 0
13 13 13 12 13 12 12 13 12 11 10 10 10 10 10 11 11 11 11 11 10 10 9 9 8 8 8 8 7 8 8 8 8 8 6 5 7 10 8 9 8 8 7 8 7 7 5 3 1
12 14 13 14 14 14 12 15 13 12 11 11 11 11 11 10 10 11 10 11 10 10 9 9 8 8 7 6 6 6 7 6 8 8 6 5 6 9 9 9 8 8 7 7 7 6 5 4 0
14 14 17 14 13 14 14 16 13 12 12 12 12 12 12 12 11 11 11 11 11 11 10 9 5 7 7 6 5 5 5 6 7 8 8 6 6 7 9 10 8 8 8 7 7 7 6 5 1
16 19 17 16 13 14 15 15 14 13 13 13 13 13 13 12 12 12 12 12 12 11 10 10 8 8 6 5 5 5 5 5 5 7 8 7 5 6 9 9 9 7 8 7 7 7 7 6 3
17 17 18 17 15 15 16 15 14 13 14 13 14 14 13 13 13 11 12 12 11 11 10 9 8 7 6 6 5 4 3 4 5 6 7 7 6 6 8 9 8 7 8 8 8 8 7 6 4
14 15 17 17 14 14 15 15 15 14 15 15 14 15 14 14 13 12 12 12 11 11 10 9 9 8 6 5 5 5 4 5 5 4 5 6 5 6 7 8 8 8 9 9 8 8 7 6 4
13 15 16 14 13 15 16 15 15 14 14 14 14 13 13 14 13 12 13 13 12 11 10 10 9 7 6 5 5 5 4 4 4 4 5 3 5 5 5 7 8 9 10 9 9 8 8 7 6
14 15 16 16 14 15 16 16 16 14 13 12 13 13 13 13 13 13 13 14 13 12 11 10 9 8 6 5 5 5 4 4 4 4 5 3 3 5 4 5 8 9 10 10 9 9 9 9 7
14 13 13 14 16 18 15 20 16 15 14 13 12 13 13 14 13 13 14 14 13 12 11 10 9 8 6 5 7 6 5 5 4 4 4 4 4 4 5 6 8 10 10 10 10 8 9 9 8
13 12 13 14 16 17 16 18 16 14 13 13 12 12 13 14 14 14 14 14 13 13 12 11 10 8 6 6 6 6 6 5 4 4 4 4 5 6 7 7 8 9 10 9 9 9 9 8 8
11 13 14 15 16 20 16 17 18 15 13 13 12 12 12 14 14 14 13 13 14 13 12 12 11 9 8 7 6 6 6 5 5 5 4 4 5 5 6 7 7 7 8 8 9 9 9 9 9
13 15 18 19 20 20 14 17 16 12 12 12 12 12 13 14 14 14 14 14 13 13 13 12 11 10 9 7 6 5 6 5 5 5 5 5 5 4 5 5 6 7 8 8 8 9 8 8 9
14 15 19 20 21 20 14 20 15 10 11 11 10 12 13 14 14 14 14 14 13 13 13 12 11 10 9 8 6 5 4 4 4 3 3 4 4 3 3 4 5 7 8 8 8 8 8 8 8
13 16 14 17 16 19 18 13 11 11 11 11 10 11 13 14 14 14 13 13 13 13 12 12 11 10 10 9 7 6 4 4 3 2 2 2 4 3 4 4 5 8 8 9 8 7 8 9 8
13 12 17 17 19 20 19 17 16 13 12 11 11 12 13 14 14 14 13 13 13 13 12 12 12 11 10 10 8 6 5 4 1 2 2 4 5 5 5 4 5 8 9 10 9 8 8 9 9
14 15 14 15 17 20 23 19 13 11 11 12 11 11 13 13 14 14 14 13 13 13 13 12 12 11 11 10 9 8 6 4 3 3 4 4 5 5 5 4 5 9 9 10 9 9 8 10 10
12 13 13 18 17 17 19 18 11 10 11 10 11 10 12 13 14 14 14 13 14 13 13 12 12 12 11 10 9 8 6 5 5 4 3 5 5 4 4 5 6 9 9 10 10 10 9 10 10